Location: Arbon
(43.0005°N, 0.7472°E)
Time: 11:06:07
(UTC+00:00)

Cosmos 2242 Rocket - Pass Details

Date: 22 April 2026
Orbit: 612 x 646 km, 82.5° (Epoch: 14 May)

Event Time Altitude Azimuth Distance (km) Brightness Sun altitude
Rises 19:30:55 0° 354° (N) 2,924 7.5 -8.2°
Reaches altitude 10° 19:33:12 10° 358° (N) 2,006 6.6 -8.6°
Maximum altitude 19:37:36 63° 80° (E) 697 3.6 -9.3°
Drops below altitude 10° 19:41:56 10° 162° (SSE) 1,973 5.7 -10.0°
Enters shadow 19:43:16 - 164° (SSE) 2,507 6.3 -10.2°
